Time,TemperatureF,DewpointF,PressureIn,WindDirection,WindDirectionDegrees,WindSpeedMPH,WindSpeedGustMPH,Humidity,HourlyPrecipIn,Conditions,Clouds,dailyrainin,SolarRadiationWatts/m^2,SoftwareType,DateUTC
2013-02-11 00:02:00,60.0,60.0,-100.00,SSE,153,5.0,6.0,100,0.00,,,0.93,0.000000,,2013-02-11 06:02:00,
2013-02-11 00:32:00,61.0,61.0,-100.00,NW,318,0.0,7.0,100,0.01,,,0.94,0.000000,,2013-02-11 06:32:00,
2013-02-11 00:42:00,61.0,61.0,-100.00,NW,318,0.0,7.0,100,0.01,,,0.94,0.000000,,2013-02-11 06:42:00,
2013-02-11 00:52:00,61.0,61.0,-100.00,NW,318,0.0,7.0,100,0.01,,,0.94,0.000000,,2013-02-11 06:52:00,
2013-02-11 01:01:00,61.0,61.0,-100.00,NW,318,0.0,7.0,100,0.01,,,0.94,0.000000,,2013-02-11 07:01:00,
2013-02-11 01:32:00,61.0,61.0,-100.00,NE,45,4.0,9.0,100,0.42,,,1.36,0.000000,,2013-02-11 07:32:00,
2013-02-11 01:42:00,61.0,61.0,-100.00,NE,45,4.0,9.0,100,0.42,,,1.36,0.000000,,2013-02-11 07:42:00,
2013-02-11 01:52:00,61.0,61.0,-100.00,NE,45,4.0,9.0,100,0.42,,,1.36,0.000000,,2013-02-11 07:52:00,
2013-02-11 02:01:00,61.0,61.0,-100.00,NE,45,4.0,9.0,100,0.42,,,1.36,0.000000,,2013-02-11 08:01:00,
2013-02-11 02:32:00,61.0,61.0,-100.00,NW,322,4.0,8.0,100,0.00,,,1.36,0.000000,,2013-02-11 08:32:00,
2013-02-11 02:42:00,61.0,61.0,-100.00,NW,322,4.0,8.0,100,0.00,,,1.36,0.000000,,2013-02-11 08:42:00,
2013-02-11 02:52:00,61.0,61.0,-100.00,NW,322,4.0,8.0,100,0.00,,,1.36,0.000000,,2013-02-11 08:52:00,
2013-02-11 03:01:00,61.0,61.0,-100.00,NW,322,4.0,8.0,100,0.00,,,1.36,0.000000,,2013-02-11 09:01:00,
2013-02-11 03:32:00,61.0,61.0,-100.00,ESE,114,4.0,6.0,100,0.01,,,1.37,0.000000,,2013-02-11 09:32:00,
2013-02-11 03:42:00,61.0,61.0,-100.00,ESE,114,4.0,6.0,100,0.01,,,1.37,0.000000,,2013-02-11 09:42:00,
2013-02-11 03:52:00,61.0,61.0,-100.00,ESE,114,4.0,6.0,100,0.01,,,1.37,0.000000,,2013-02-11 09:52:00,
2013-02-11 04:01:00,61.0,61.0,-100.00,ESE,114,4.0,6.0,100,0.01,,,1.37,0.000000,,2013-02-11 10:01:00,
2013-02-11 04:32:00,59.0,59.0,-100.00,NNW,343,0.0,3.0,100,0.25,,,1.62,0.000000,,2013-02-11 10:32:00,
2013-02-11 04:42:00,59.0,59.0,-100.00,NNW,343,0.0,3.0,100,0.25,,,1.62,0.000000,,2013-02-11 10:42:00,
2013-02-11 04:52:00,59.0,59.0,-100.00,NNW,343,0.0,3.0,100,0.25,,,1.62,0.000000,,2013-02-11 10:52:00,
2013-02-11 05:01:00,59.0,59.0,-100.00,NNW,343,0.0,3.0,100,0.25,,,1.62,0.000000,,2013-02-11 11:01:00,
2013-02-11 05:32:00,56.0,56.0,-100.00,NNW,333,0.0,0.0,99,0.19,,,1.81,0.000000,,2013-02-11 11:32:00,
2013-02-11 05:42:00,56.0,56.0,-100.00,NNW,333,0.0,0.0,99,0.19,,,1.81,0.000000,,2013-02-11 11:42:00,
2013-02-11 05:52:00,56.0,56.0,-100.00,NNW,333,0.0,0.0,99,0.19,,,1.81,0.000000,,2013-02-11 11:52:00,
2013-02-11 06:03:00,56.0,56.0,-100.00,NNW,333,0.0,0.0,99,0.19,,,1.81,0.000000,,2013-02-11 12:03:00,
2013-02-11 06:32:00,54.0,53.0,-100.00,North,352,10.0,15.0,98,0.14,,,-99.99,0.000000,,2013-02-11 12:32:00,
2013-02-11 06:42:00,54.0,53.0,-100.00,North,352,10.0,15.0,98,0.14,,,-99.99,0.000000,,2013-02-11 12:42:00,
2013-02-11 06:52:00,54.0,53.0,-100.00,North,352,10.0,15.0,98,0.14,,,-99.99,0.000000,,2013-02-11 12:52:00,
2013-02-11 07:02:00,54.0,53.0,-100.00,North,352,10.0,15.0,98,0.14,,,-99.99,0.000000,,2013-02-11 13:02:00,
2013-02-11 07:33:00,54.0,54.0,-100.00,North,351,9.0,22.0,100,0.23,,,-99.99,0.000000,,2013-02-11 13:33:00,
2013-02-11 07:42:00,54.0,54.0,-100.00,North,351,9.0,22.0,100,0.23,,,-99.99,0.000000,,2013-02-11 13:42:00,
2013-02-11 07:52:00,54.0,54.0,-100.00,North,351,9.0,22.0,100,0.23,,,-99.99,0.000000,,2013-02-11 13:52:00,
2013-02-11 08:02:00,54.0,54.0,-100.00,North,351,9.0,22.0,100,0.23,,,-99.99,0.000000,,2013-02-11 14:02:00,
2013-02-11 08:33:00,52.0,52.0,-100.00,NNE,21,8.0,17.0,100,0.10,,,-99.99,4.000000,,2013-02-11 14:33:00,
2013-02-11 08:42:00,52.0,52.0,-100.00,NNE,21,8.0,17.0,100,0.10,,,-99.99,4.000000,,2013-02-11 14:42:00,
2013-02-11 08:53:00,52.0,52.0,-100.00,NNE,21,8.0,17.0,100,0.10,,,-99.99,4.000000,,2013-02-11 14:53:00,
2013-02-11 09:02:00,52.0,52.0,-100.00,NNE,21,8.0,17.0,100,0.10,,,-99.99,4.000000,,2013-02-11 15:02:00,
2013-02-11 09:32:00,52.0,52.0,-100.00,NE,39,8.0,17.0,100,0.04,,,2.28,13.000000,,2013-02-11 15:32:00,
2013-02-11 09:42:00,52.0,52.0,-100.00,NE,39,8.0,17.0,100,0.04,,,2.28,13.000000,,2013-02-11 15:42:00,
2013-02-11 09:52:00,52.0,52.0,-100.00,NE,39,8.0,17.0,100,0.04,,,2.28,13.000000,,2013-02-11 15:52:00,
2013-02-11 10:02:00,52.0,52.0,-100.00,NE,39,8.0,17.0,100,0.04,,,2.28,13.000000,,2013-02-11 16:02:00,
2013-02-11 10:32:00,51.0,51.0,-100.00,ENE,57,8.0,13.0,100,0.11,,,2.39,15.000000,,2013-02-11 16:32:00,
2013-02-11 10:42:00,51.0,51.0,-100.00,ENE,57,8.0,13.0,100,0.11,,,2.39,15.000000,,2013-02-11 16:42:00,
2013-02-11 10:52:00,51.0,51.0,-100.00,ENE,57,8.0,13.0,100,0.11,,,2.39,15.000000,,2013-02-11 16:52:00,
2013-02-11 11:02:00,51.0,51.0,-100.00,ENE,57,8.0,13.0,100,0.11,,,2.39,15.000000,,2013-02-11 17:02:00,
2013-02-11 11:32:00,52.0,52.0,-100.00,ENE,61,6.0,13.0,100,0.26,,,2.65,14.000000,,2013-02-11 17:32:00,
2013-02-11 11:42:00,52.0,52.0,-100.00,ENE,61,6.0,13.0,100,0.26,,,2.65,14.000000,,2013-02-11 17:42:00,
2013-02-11 11:53:00,52.0,52.0,-100.00,ENE,61,6.0,13.0,100,0.26,,,2.65,14.000000,,2013-02-11 17:53:00,
2013-02-11 12:02:00,52.0,52.0,-100.00,ENE,61,6.0,13.0,100,0.26,,,2.65,14.000000,,2013-02-11 18:02:00,
2013-02-11 12:32:00,52.0,52.0,-100.00,ENE,57,7.0,13.0,100,0.15,,,2.79,34.000000,,2013-02-11 18:32:00,
2013-02-11 12:42:00,52.0,52.0,-100.00,ENE,57,7.0,13.0,100,0.15,,,2.79,34.000000,,2013-02-11 18:42:00,
2013-02-11 12:53:00,52.0,52.0,-100.00,ENE,57,7.0,13.0,100,0.15,,,2.79,34.000000,,2013-02-11 18:53:00,
2013-02-11 13:02:00,52.0,52.0,-100.00,ENE,57,7.0,13.0,100,0.15,,,2.79,34.000000,,2013-02-11 19:02:00,
2013-02-11 14:32:00,54.0,54.0,-100.00,ENE,68,7.0,14.0,100,-99.99,,,2.82,58.000000,,2013-02-11 20:32:00,
2013-02-11 14:42:00,54.0,54.0,-100.00,ENE,68,7.0,14.0,100,-99.99,,,2.82,58.000000,,2013-02-11 20:42:00,
2013-02-11 14:52:00,54.0,54.0,-100.00,ENE,68,7.0,14.0,100,-99.99,,,2.82,58.000000,,2013-02-11 20:52:00,
2013-02-11 15:02:00,54.0,54.0,-100.00,ENE,68,7.0,14.0,100,-99.99,,,2.82,58.000000,,2013-02-11 21:02:00,
2013-02-11 15:32:00,54.0,54.0,-100.00,East,81,0.0,15.0,100,0.15,,,2.96,19.000000,,2013-02-11 21:32:00,
2013-02-11 15:42:00,54.0,54.0,-100.00,East,81,0.0,15.0,100,0.15,,,2.96,19.000000,,2013-02-11 21:42:00,
2013-02-11 15:52:00,54.0,54.0,-100.00,East,81,0.0,15.0,100,0.15,,,2.96,19.000000,,2013-02-11 21:52:00,
2013-02-11 16:02:00,54.0,54.0,-100.00,East,81,0.0,15.0,100,0.15,,,2.96,19.000000,,2013-02-11 22:02:00,
2013-02-11 16:32:00,54.0,54.0,-100.00,NE,51,0.0,0.0,100,0.06,,,3.02,28.000000,,2013-02-11 22:32:00,
2013-02-11 16:42:00,54.0,54.0,-100.00,NE,51,0.0,0.0,100,0.06,,,3.02,28.000000,,2013-02-11 22:42:00,
2013-02-11 16:52:00,54.0,54.0,-100.00,NE,51,0.0,0.0,100,0.06,,,3.02,28.000000,,2013-02-11 22:52:00,
2013-02-11 17:02:00,54.0,54.0,-100.00,NE,51,0.0,0.0,100,0.06,,,3.02,28.000000,,2013-02-11 23:02:00,
2013-02-11 17:32:00,54.0,54.0,-100.00,ENE,72,0.0,0.0,100,0.06,,,3.07,18.000000,,2013-02-11 23:32:00,
2013-02-11 17:42:00,54.0,54.0,-100.00,ENE,72,0.0,0.0,100,0.06,,,3.07,18.000000,,2013-02-11 23:42:00,
2013-02-11 17:52:00,54.0,54.0,-100.00,ENE,72,0.0,0.0,100,0.06,,,3.07,18.000000,,2013-02-11 23:52:00,
2013-02-11 18:02:00,54.0,54.0,-100.00,ENE,72,0.0,0.0,100,0.06,,,3.07,18.000000,,2013-02-12 00:02:00,
2013-02-11 18:32:00,54.0,54.0,-100.00,NNE,26,0.0,0.0,100,0.14,,,-99.99,5.000000,,2013-02-12 00:32:00,
2013-02-11 18:42:00,54.0,54.0,-100.00,NNE,26,0.0,0.0,100,0.14,,,-99.99,5.000000,,2013-02-12 00:42:00,
2013-02-11 18:52:00,54.0,54.0,-100.00,NNE,26,0.0,0.0,100,0.14,,,-99.99,5.000000,,2013-02-12 00:52:00,
2013-02-11 19:02:00,54.0,54.0,-100.00,NNE,26,0.0,0.0,100,0.14,,,-99.99,5.000000,,2013-02-12 01:02:00,
2013-02-11 19:32:00,54.0,54.0,-100.00,North,5,0.0,0.0,100,0.06,,,-99.99,0.000000,,2013-02-12 01:32:00,
2013-02-11 19:42:00,54.0,54.0,-100.00,North,5,0.0,0.0,100,0.06,,,-99.99,0.000000,,2013-02-12 01:42:00,
2013-02-11 19:52:00,54.0,54.0,-100.00,North,5,0.0,0.0,100,0.06,,,-99.99,0.000000,,2013-02-12 01:52:00,
2013-02-11 20:01:00,54.0,54.0,-100.00,North,5,0.0,0.0,100,0.06,,,-99.99,0.000000,,2013-02-12 02:01:00,
2013-02-11 20:32:00,54.0,54.0,-100.00,NE,39,0.0,0.0,100,0.04,,,2.71,0.000000,,2013-02-12 02:32:00,
2013-02-11 20:42:00,54.0,54.0,-100.00,NE,39,0.0,0.0,100,0.04,,,2.71,0.000000,,2013-02-12 02:42:00,
2013-02-11 20:53:00,54.0,54.0,-100.00,NE,39,0.0,0.0,100,0.04,,,2.71,0.000000,,2013-02-12 02:53:00,
2013-02-11 21:02:00,54.0,54.0,-100.00,NE,39,0.0,0.0,100,0.04,,,2.71,0.000000,,2013-02-12 03:02:00,
2013-02-11 21:32:00,53.0,53.0,-100.00,North,4,0.0,0.0,100,0.05,,,2.76,0.000000,,2013-02-12 03:32:00,
2013-02-11 21:42:00,53.0,53.0,-100.00,North,4,0.0,0.0,100,0.05,,,2.76,0.000000,,2013-02-12 03:42:00,
2013-02-11 21:52:00,53.0,53.0,-100.00,North,4,0.0,0.0,100,0.05,,,2.76,0.000000,,2013-02-12 03:52:00,
2013-02-11 22:01:00,53.0,53.0,-100.00,North,4,0.0,0.0,100,0.05,,,2.76,0.000000,,2013-02-12 04:01:00,
2013-02-11 22:32:00,53.0,53.0,-100.00,NE,55,0.0,0.0,100,0.12,,,2.75,0.000000,,2013-02-12 04:32:00,
2013-02-11 22:42:00,53.0,53.0,-100.00,NE,55,0.0,0.0,100,0.12,,,2.75,0.000000,,2013-02-12 04:42:00,
2013-02-11 22:52:00,53.0,53.0,-100.00,NE,55,0.0,0.0,100,0.12,,,2.75,0.000000,,2013-02-12 04:52:00,
2013-02-11 23:01:00,53.0,53.0,-100.00,NE,55,0.0,0.0,100,0.12,,,2.75,0.000000,,2013-02-12 05:01:00,
2013-02-11 23:32:00,53.0,53.0,-100.00,NNE,16,0.0,0.0,100,0.02,,,2.77,0.000000,,2013-02-12 05:32:00,
2013-02-11 23:42:00,53.0,53.0,-100.00,NNE,16,0.0,0.0,100,0.02,,,2.77,0.000000,,2013-02-12 05:42:00,
2013-02-11 23:52:00,53.0,53.0,-100.00,NNE,16,0.0,0.0,100,0.02,,,2.77,0.000000,,2013-02-12 05:52:00,